Wind_Speed
14 13 12 11 10 8 5 3 2 3 4 5 7 9 10 11 12 14 15 16 16 16 16 16 15 14 12 11 11 10 10 9 8 7 6 5 4 2 1 1 2 2 2 3
15 15 15 13 12 10 8 5 5 4 3 4 5 7 9 9 11 13 14 14 15 15 15 15 14 13 12 12 11 11 11 10 9 8 6 5 4 3 2 2 3 3 3 4
18 17 16 14 13 12 10 8 7 6 5 5 5 8 8 8 10 12 13 13 14 14 13 13 13 12 12 12 11 11 10 10 10 9 7 6 5 4 4 3 3 3 4 4
20 19 17 15 14 12 11 10 9 8 6 6 6 6 8 9 9 10 11 12 13 12 12 12 12 11 11 11 11 11 10 10 10 10 9 7 6 6 5 5 5 5 5 5
22 20 18 17 16 13 13 12 11 9 8 7 7 6 8 9 9 9 10 11 11 11 11 11 11 10 11 11 11 11 11 10 9 9 10 9 8 7 6 6 6 6 6 6
23 22 21 19 18 16 14 12 11 10 9 9 8 6 7 8 8 9 9 10 11 11 11 10 10 10 11 11 11 11 11 11 11 10 11 11 10 9 8 8 8 8 6 7
25 23 22 21 19 18 15 13 10 10 10 10 10 8 7 8 8 8 8 8 10 10 9 9 10 10 10 11 11 11 11 11 11 11 12 12 12 11 10 9 9 8 6 7
25 24 24 22 21 20 18 15 12 11 10 11 12 10 8 8 8 8 7 8 8 9 9 9 9 10 10 11 11 11 10 11 12 12 12 12 11 12 11 10 10 8 7 8
25 25 24 23 22 20 19 18 15 13 12 11 12 11 9 8 8 8 7 7 8 8 8 8 9 10 10 11 11 11 11 11 12 12 12 13 12 12 11 10 10 9 9 9
27 26 26 25 23 22 20 18 17 15 14 13 13 12 10 8 8 8 7 7 7 8 9 9 10 10 11 11 10 10 11 12 12 12 13 13 13 12 12 12 11 10 10 10
28 27 27 27 26 24 23 21 19 17 16 14 12 12 11 9 9 9 9 8 8 8 9 10 10 10 11 10 10 10 11 12 12 12 13 13 13 13 13 13 12 12 12 12
28 27 26 27 26 26 24 23 21 19 18 16 14 13 13 11 10 10 10 10 10 9 10 11 11 11 11 11 10 11 12 12 12 12 13 14 14 14 14 14 14 14 14 14
29 29 27 25 27 27 27 25 23 21 19 18 15 14 15 13 12 12 12 12 11 11 11 11 12 12 11 12 12 12 13 13 13 14 14 14 14 14 15 15 15 16 16 15
30 30 28 25 25 26 27 26 25 23 20 20 18 16 16 15 14 14 13 13 12 12 13 12 12 13 13 13 14 14 14 15 15 15 15 15 15 15 16 16 16 16 16 16
31 31 30 28 27 26 27 26 26 25 23 21 20 19 17 17 15 15 15 14 14 14 14 14 14 15 15 15 16 16 16 16 16 16 16 16 16 17 17 17 16 16 16 17
32 32 31 30 29 28 28 27 27 26 26 24 23 21 19 18 18 17 17 16 16 16 16 16 16 17 16 16 17 17 17 17 17 17 17 17 17 18 18 18 17 17 18 18
33 32 32 30 30 29 29 29 28 27 27 26 25 22 21 20 20 19 18 18 17 17 17 17 17 17 17 17 18 18 18 18 17 18 18 18 18 18 18 18 19 19 19 20
33 33 32 30 31 31 30 29 28 28 27 26 25 24 23 22 21 21 20 20 19 19 18 18 18 18 19 19 19 20 21 21 19 19 19 19 19 19 20 20 20 20 21 21
33 33 32 31 31 31 31 30 29 28 28 27 27 26 25 24 24 23 22 22 21 21 20 20 20 19 19 20 21 22 23 24 23 22 20 20 21 21 22 22 22 22 22 23
33 32 33 33 31 31 32 30 29 29 29 28 27 27 26 26 26 26 24 24 23 22 22 22 22 21 21 22 22 23 23 23 23 21 21 22 22 23 23 24 24 24 24 24
33 33 33 33 32 31 31 31 30 30 29 28 27 27 27 27 27 27 26 25 24 24 24 24 24 24 23 23 24 24 24 24 23 23 23 24 25 25 25 25 25 25 25 24
33 34 34 33 32 32 32 31 31 30 29 28 27 27 27 27 28 27 27 27 26 26 26 26 25 25 25 25 25 25 25 25 25 25 24 25 26 27 27 26 26 25 25 24
33 34 34 34 34 33 32 31 30 30 29 28 28 28 28 28 28 29 28 28 28 27 27 27 27 27 26 26 26 26 25 25 26 26 26 26 26 27 26 26 26 25 25 25
34 34 34 35 34 33 32 31 30 31 30 30 29 29 29 29 30 31 31 30 30 29 29 29 28 27 27 27 26 26 26 26 27 27 27 26 26 26 26 27 27 25 25 26
33 34 35 35 34 33 32 32 32 31 31 31 30 30 30 31 31 31 32 32 31 31 31 31 30 29 27 27 25 26 27 27 28 27 27 26 26 26 26 26 26 26 25 26
33 34 35 34 34 34 33 33 32 32 31 30 31 31 30 30 30 31 31 32 32 32 32 31 29 28 28 27 27 27 28 28 28 27 27 27 27 27 27 27 27 26 26 26
Wind_Direction
211 214 217 220 215 218 225 237 281 320 2 25 31 30 28 26 23 22 22 22 20 20 22 24 27 31 33 36 38 39 39 37 37 36 37 36 32 9 305 276 253 248 253 247
215 220 222 223 223 227 232 243 263 286 324 356 12 16 16 19 18 15 14 15 16 16 18 21 23 26 29 31 32 34 33 31 29 28 27 25 25 22 0 299 276 271 263 257
218 223 224 225 226 229 236 242 254 265 292 319 341 358 357 2 6 7 8 9 9 9 11 14 17 20 25 26 27 27 27 25 23 20 16 14 11 4 353 332 304 288 275 267
221 223 224 227 230 231 238 244 251 263 280 301 322 336 336 344 352 359 2 4 4 4 4 6 11 16 21 24 24 25 26 20 18 17 13 9 1 350 341 329 316 295 283 275
225 226 226 227 230 230 235 245 250 257 264 275 300 313 321 332 341 347 355 0 0 1 2 4 8 15 18 20 18 19 19 16 14 13 11 7 358 349 343 327 313 298 284 279
227 228 228 228 229 231 238 245 251 262 266 273 285 300 312 321 331 336 346 354 358 359 1 6 10 13 14 14 15 16 16 16 14 10 9 7 3 356 347 332 316 304 286 282
226 228 228 227 228 231 237 243 253 260 264 270 279 288 296 306 321 327 336 345 351 356 359 5 9 8 9 10 11 11 11 10 9 7 5 2 0 356 349 340 327 314 296 290
226 228 229 228 230 234 235 236 236 244 258 272 281 284 292 297 310 316 324 335 341 347 352 355 358 360 2 3 4 4 1 3 4 1 358 356 354 352 347 340 336 322 305 297
224 228 231 231 232 234 238 238 237 245 254 257 272 282 284 286 298 305 313 323 330 338 338 341 347 352 355 356 357 358 359 357 357 357 355 353 352 350 348 342 335 331 317 309
225 227 232 233 234 236 238 240 242 241 248 255 269 279 280 279 288 293 302 315 323 329 331 330 336 343 348 349 350 351 354 353 352 355 354 352 352 350 347 344 341 335 330 320
225 226 232 234 235 238 239 242 244 243 243 247 260 271 276 275 280 287 296 306 313 320 325 325 325 333 337 340 343 346 348 347 349 352 352 350 349 347 346 343 337 333 328 320
225 225 231 235 237 238 240 242 244 244 250 250 249 261 269 272 274 281 287 294 301 307 313 317 320 324 329 331 334 337 340 342 344 345 345 344 342 341 340 338 336 332 326 321
225 226 229 234 238 238 239 241 242 242 248 252 251 260 266 270 271 275 280 285 291 296 303 307 307 312 317 324 327 329 331 334 335 336 336 335 335 334 334 333 332 330 326 321
226 227 225 228 236 240 241 241 242 241 243 250 251 251 262 266 268 271 274 279 284 289 291 294 294 302 308 314 318 321 322 325 328 328 329 329 329 327 326 326 325 325 325 322
227 229 229 229 234 238 241 241 242 240 240 244 252 255 256 259 263 266 269 273 278 283 285 285 288 295 300 305 310 313 316 318 320 322 323 324 325 324 322 321 322 322 321 321
230 232 233 233 234 236 238 240 241 241 243 245 250 255 255 255 258 260 264 269 272 276 279 282 286 290 294 299 303 306 308 310 312 315 319 319 319 321 321 320 319 319 318 317
231 233 234 236 236 238 239 240 241 243 243 246 249 252 254 256 258 259 261 264 269 273 276 280 283 286 287 292 295 298 300 301 305 309 313 314 316 318 319 317 317 317 317 316
232 232 234 235 238 239 240 240 239 242 243 246 250 253 255 255 256 256 258 261 265 270 273 275 278 282 285 289 293 296 296 298 301 305 307 310 313 314 316 317 316 315 316 315
232 232 233 235 239 241 241 240 239 242 244 246 249 252 253 253 255 256 258 262 264 267 269 271 275 279 283 287 291 294 296 300 301 301 302 306 308 311 312 313 314 314 313 313
231 232 234 235 236 239 242 242 241 243 247 247 249 251 253 254 253 255 258 261 262 264 268 271 274 278 283 286 290 293 295 298 300 301 302 303 305 307 309 311 311 310 311 310
230 231 233 236 238 240 243 244 244 245 248 248 249 250 250 251 252 254 256 258 260 262 267 270 273 276 280 283 288 291 293 295 298 300 303 304 305 307 307 308 309 308 308 307
231 232 234 236 239 242 243 244 244 246 248 249 248 249 249 250 253 254 256 258 259 261 265 267 271 275 278 281 285 288 290 292 295 300 301 303 303 305 306 306 307 305 305 304
232 234 236 237 239 243 246 247 246 247 248 249 248 248 249 250 252 253 255 256 257 261 265 268 270 273 276 279 282 284 287 290 292 295 297 300 301 303 304 305 305 304 304 303
234 236 238 240 240 243 246 247 248 248 249 249 249 249 249 250 252 253 255 256 257 260 264 267 267 270 273 276 278 282 285 288 290 292 294 298 299 302 303 305 306 303 303 302
236 238 240 242 243 243 245 247 249 250 251 251 251 251 252 252 252 253 254 255 255 257 260 263 265 267 270 273 276 281 284 288 289 290 292 295 297 299 301 303 305 304 303 304
237 239 241 243 243 244 245 246 249 251 251 252 252 252 253 252 252 252 253 255 257 259 261 264 267 268 269 271 273 278 282 286 287 288 290 292 295 296 298 301 302 302 303 304
Height
5932 5935 5937 5938 5940 5941 5942 5942 5942 5941 5940 5939 5938 5937 5935 5933 5931 5929 5927 5924 5922 5919 5916 5913 5910 5908 5906 5904 5902 5900 5899 5898 5896 5895 5894 5893 5893 5892 5892 5891 5891 5891 5891 5890
5931 5933 5935 5936 5937 5939 5940 5941 5941 5940 5940 5939 5938 5937 5936 5934 5932 5930 5928 5926 5923 5921 5918 5915 5913 5910 5908 5906 5904 5902 5900 5899 5897 5896 5895 5894 5893 5892 5891 5891 5891 5891 5890 5889
5929 5931 5931 5933 5935 5937 5938 5940 5940 5940 5939 5939 5938 5938 5936 5935 5933 5931 5929 5926 5924 5922 5919 5917 5914 5911 5909 5907 5905 5903 5901 5899 5898 5896 5895 5894 5893 5892 5891 5890 5890 5889 5889 5888
5924 5926 5929 5931 5933 5935 5937 5938 5938 5938 5939 5939 5939 5940 5937 5935 5933 5931 5929 5927 5925 5922 5920 5918 5915 5913 5910 5908 5906 5904 5902 5900 5898 5897 5895 5894 5893 5892 5891 5890 5889 5889 5888 5887
5921 5923 5926 5929 5931 5933 5935 5935 5936 5936 5937 5938 5938 5938 5939 5934 5933 5931 5929 5927 5925 5923 5920 5918 5916 5913 5911 5909 5907 5904 5902 5900 5899 5897 5896 5894 5893 5891 5890 5889 5888 5887 5887 5886
5918 5920 5923 5925 5928 5930 5931 5933 5934 5935 5936 5937 5937 5937 5937 5934 5932 5931 5929 5927 5925 5923 5921 5918 5916 5914 5912 5910 5908 5905 5903 5901 5899 5897 5896 5894 5892 5891 5889 5888 5886 5885 5885 5884
5913 5916 5919 5922 5924 5926 5929 5932 5934 5935 5936 5936 5934 5934 5935 5933 5931 5930 5928 5927 5924 5923 5921 5919 5917 5915 5913 5910 5908 5906 5904 5902 5900 5898 5896 5894 5892 5890 5888 5886 5884 5883 5883 5882
5910 5913 5915 5918 5921 5923 5926 5929 5933 5935 5936 5935 5932 5932 5933 5930 5930 5928 5927 5926 5924 5922 5920 5919 5917 5915 5913 5911 5908 5906 5904 5902 5900 5898 5895 5893 5891 5889 5887 5885 5883 5882 5881 5881
5907 5910 5911 5914 5917 5920 5922 5924 5928 5930 5930 5931 5931 5929 5929 5928 5928 5927 5926 5924 5923 5921 5920 5918 5916 5914 5912 5910 5908 5906 5904 5902 5899 5897 5895 5893 5891 5888 5886 5884 5882 5881 5880 5878
5902 5905 5907 5909 5913 5915 5918 5920 5922 5926 5927 5929 5929 5928 5928 5926 5926 5925 5924 5923 5922 5921 5919 5917 5915 5914 5912 5910 5908 5906 5903 5901 5899 5896 5894 5892 5890 5887 5885 5883 5881 5879 5878 5876
5896 5901 5903 5905 5908 5911 5913 5916 5918 5921 5923 5925 5927 5929 5924 5924 5923 5923 5922 5921 5921 5920 5918 5916 5914 5913 5911 5909 5907 5905 5903 5901 5898 5896 5893 5891 5888 5886 5884 5882 5880 5878 5876 5874
5891 5895 5898 5900 5903 5905 5908 5911 5913 5917 5917 5919 5922 5926 5920 5920 5920 5920 5920 5919 5919 5918 5917 5915 5913 5911 5910 5908 5906 5904 5902 5900 5897 5895 5892 5890 5887 5885 5882 5880 5878 5876 5873 5871
5884 5889 5893 5896 5899 5900 5902 5905 5908 5911 5913 5914 5918 5921 5917 5917 5917 5917 5917 5916 5916 5915 5914 5913 5911 5909 5908 5906 5904 5903 5900 5898 5896 5893 5890 5888 5885 5883 5880 5878 5875 5873 5870 5868
5879 5882 5888 5893 5894 5895 5897 5900 5903 5906 5909 5910 5912 5914 5913 5913 5913 5913 5913 5913 5913 5912 5911 5910 5908 5907 5906 5904 5902 5900 5898 5896 5894 5891 5889 5886 5883 5881 5878 5876 5873 5870 5868 5865
5872 5876 5880 5884 5887 5889 5892 5894 5897 5899 5902 5905 5907 5907 5909 5908 5909 5909 5909 5909 5909 5908 5908 5907 5905 5904 5903 5901 5899 5898 5895 5893 5891 5888 5886 5883 5881 5878 5875 5873 5870 5867 5865 5862
5865 5869 5873 5877 5880 5882 5885 5888 5890 5893 5896 5898 5900 5902 5903 5903 5904 5904 5904 5905 5905 5904 5904 5903 5902 5900 5899 5898 5896 5894 5892 5890 5888 5885 5883 5880 5878 5875 5872 5869 5867 5864 5861 5859
5858 5863 5867 5870 5873 5876 5879 5882 5884 5887 5889 5892 5894 5897 5897 5898 5899 5899 5899 5900 5900 5900 5899 5898 5897 5896 5895 5893 5892 5890 5888 5886 5884 5882 5879 5877 5874 5871 5869 5866 5863 5860 5858 5855
5852 5855 5860 5864 5867 5869 5874 5875 5878 5880 5882 5885 5887 5889 5890 5892 5893 5893 5894 5894 5895 5895 5894 5894 5893 5891 5890 5889 5887 5885 5883 5881 5879 5877 5875 5873 5870 5868 5865 5862 5859 5856 5853 5850
5844 5848 5853 5857 5859 5862 5865 5867 5871 5873 5875 5878 5880 5882 5883 5885 5886 5887 5888 5888 5889 5889 5889 5888 5887 5886 5885 5884 5882 5880 5877 5875 5874 5872 5870 5868 5865 5863 5860 5857 5854 5851 5848 5845
5837 5841 5845 5848 5852 5855 5858 5861 5863 5867 5868 5871 5872 5874 5876 5878 5879 5881 5881 5881 5882 5882 5883 5882 5881 5880 5879 5878 5876 5874 5871 5869 5869 5867 5865 5863 5860 5858 5855 5852 5849 5846 5842 5839
5829 5832 5836 5840 5843 5847 5850 5853 5856 5860 5862 5863 5865 5866 5868 5870 5872 5873 5874 5875 5875 5876 5876 5875 5875 5874 5873 5872 5870 5869 5866 5865 5864 5862 5860 5857 5855 5852 5849 5846 5843 5840 5836 5833
5821 5825 5829 5832 5836 5841 5841 5844 5848 5851 5853 5855 5857 5859 5861 5862 5864 5865 5866 5867 5868 5868 5868 5868 5868 5868 5867 5866 5864 5863 5861 5860 5858 5856 5854 5852 5849 5846 5843 5840 5836 5833 5830 5827
5813 5818 5821 5825 5830 5831 5833 5836 5839 5842 5845 5847 5849 5851 5853 5854 5856 5857 5859 5860 5860 5861 5861 5861 5860 5860 5860 5859 5858 5857 5855 5853 5852 5850 5848 5845 5843 5840 5837 5834 5830 5827 5824 5821
5805 5808 5812 5816 5819 5822 5825 5827 5830 5833 5836 5838 5840 5842 5844 5846 5848 5849 5850 5851 5852 5853 5853 5853 5853 5852 5852 5851 5851 5850 5849 5847 5845 5843 5841 5838 5836 5834 5831 5828 5824 5821 5818 5815
5796 5800 5803 5806 5811 5813 5816 5819 5822 5824 5827 5829 5831 5833 5835 5837 5839 5840 5842 5843 5844 5844 5845 5845 5844 5844 5844 5843 5843 5842 5841 5839 5838 5836 5833 5832 5830 5828 5825 5822 5819 5815 5812 5809
5788 5791 5794 5797 5801 5804 5807 5810 5812 5815 5817 5820 5822 5824 5826 5828 5830 5831 5833 5834 5835 5836 5836 5836 5836 5836 5836 5836 5835 5835 5833 5832 5830 5828 5826 5824 5823 5820 5818 5815 5812 5809 5806 5803